Time,TemperatureF,DewpointF,PressureIn,WindDirection,WindDirectionDegrees,WindSpeedMPH,WindSpeedGustMPH,Humidity,HourlyPrecipIn,Conditions,Clouds,dailyrainin,SoftwareType,DateUTC
2013-06-29 13:35:00,76.4,70.1,29.51,NE,46,1.0,1.0,81,0.00,,,0.28,Wunderground v.1.15,2013-06-29 17:35:00,
2013-06-29 13:40:00,76.2,69.6,29.51,SE,143,2.0,2.0,80,0.00,,,0.28,Wunderground v.1.15,2013-06-29 17:40:00,
2013-06-29 13:50:00,75.6,69.4,29.51,SE,138,1.0,2.0,81,0.00,,,0.28,Wunderground v.1.15,2013-06-29 17:50:00,
2013-06-29 13:55:00,75.9,69.6,29.51,NNE,32,0.0,0.0,81,0.00,,,0.28,Wunderground v.1.15,2013-06-29 17:55:00,
2013-06-29 14:05:00,76.5,69.9,29.50,NE,39,1.0,2.0,80,0.00,,,0.28,Wunderground v.1.15,2013-06-29 18:05:00,
2013-06-29 14:10:00,77.2,69.8,29.50,NE,40,1.0,1.0,78,0.00,,,0.28,Wunderground v.1.15,2013-06-29 18:10:00,
2013-06-29 14:20:00,78.3,70.1,29.50,SE,139,2.0,2.0,76,0.00,,,0.28,Wunderground v.1.15,2013-06-29 18:20:00,
2013-06-29 14:30:00,77.8,69.2,29.50,SW,215,2.0,2.0,75,0.00,,,0.28,Wunderground v.1.15,2013-06-29 18:30:00,
2013-06-29 14:35:00,78.3,68.9,29.50,SSE,152,2.0,2.0,73,0.00,,,0.28,Wunderground v.1.15,2013-06-29 18:35:00,
2013-06-29 14:45:00,77.2,68.7,29.50,SE,124,3.0,3.0,75,0.00,,,0.28,Wunderground v.1.15,2013-06-29 18:45:00,
2013-06-29 14:50:00,76.8,67.9,29.50,SW,232,2.0,2.0,74,0.00,,,0.28,Wunderground v.1.15,2013-06-29 18:50:00,
2013-06-29 15:00:00,76.4,68.3,29.50,SE,141,2.0,2.0,76,0.00,,,0.28,Wunderground v.1.15,2013-06-29 19:00:00,
2013-06-29 15:05:00,76.9,68.0,29.50,South,188,2.0,2.0,74,0.00,,,0.28,Wunderground v.1.15,2013-06-29 19:05:00,
2013-06-29 15:15:00,78.3,70.1,29.49,SSE,153,2.0,2.0,76,0.00,,,0.28,Wunderground v.1.15,2013-06-29 19:15:00,
2013-06-29 15:20:00,78.2,68.8,29.50,SSE,156,2.0,4.0,73,0.00,,,0.28,Wunderground v.1.15,2013-06-29 19:20:00,
2013-06-29 15:30:00,77.2,68.3,29.50,SE,133,3.0,3.0,74,0.00,,,0.28,Wunderground v.1.15,2013-06-29 19:30:00,
2013-06-29 15:35:00,76.9,68.0,29.50,SSE,165,2.0,3.0,74,0.00,,,0.28,Wunderground v.1.15,2013-06-29 19:35:00,
2013-06-29 15:45:00,77.0,69.6,29.50,SE,138,0.0,2.0,78,0.00,,,0.28,Wunderground v.1.15,2013-06-29 19:45:00,
2013-06-29 15:50:00,76.7,68.2,29.49,SE,134,0.0,3.0,75,0.00,,,0.28,Wunderground v.1.15,2013-06-29 19:50:00,
2013-06-29 16:00:00,75.9,69.3,29.50,SE,146,1.0,1.0,80,0.00,,,0.28,Wunderground v.1.15,2013-06-29 20:00:00,
2013-06-29 16:05:00,75.2,67.5,29.50,SSE,150,1.0,1.0,77,0.00,,,0.28,Wunderground v.1.15,2013-06-29 20:05:00,
2013-06-29 16:15:00,73.6,63.6,29.50,North,352,4.0,6.0,71,0.00,,,0.28,Wunderground v.1.15,2013-06-29 20:15:00,
2013-06-29 16:20:00,73.0,65.4,29.51,SSW,198,2.0,2.0,77,0.00,,,0.28,Wunderground v.1.15,2013-06-29 20:20:00,
2013-06-29 16:30:00,71.8,62.7,29.51,NE,43,1.0,1.0,73,0.00,,,0.28,Wunderground v.1.15,2013-06-29 20:30:00,
2013-06-29 16:35:00,71.3,62.6,29.51,NNW,333,1.0,1.0,74,0.00,,,0.28,Wunderground v.1.15,2013-06-29 20:35:00,
2013-06-29 16:45:00,70.5,63.3,29.51,NNE,22,0.0,0.0,78,0.00,,,0.28,Wunderground v.1.15,2013-06-29 20:45:00,
2013-06-29 16:50:00,70.3,63.1,29.52,NE,40,0.0,1.0,78,0.00,,,0.28,Wunderground v.1.15,2013-06-29 20:50:00,
2013-06-29 17:00:00,69.4,65.0,29.53,SE,125,0.0,1.0,86,0.00,,,0.29,Wunderground v.1.15,2013-06-29 21:00:00,
2013-06-29 17:05:00,68.6,64.9,29.54,SSE,148,1.0,1.0,88,0.14,,,0.30,Wunderground v.1.15,2013-06-29 21:05:00,
2013-06-29 17:15:00,67.8,65.4,29.54,NNE,31,1.0,1.0,92,0.15,,,0.38,Wunderground v.1.15,2013-06-29 21:15:00,
2013-06-29 17:20:00,68.2,65.2,29.53,NNE,15,1.0,1.0,90,0.07,,,0.38,Wunderground v.1.15,2013-06-29 21:20:00,
2013-06-29 17:25:00,68.6,66.2,29.53,NNE,15,0.0,1.0,92,0.04,,,0.38,Wunderground v.1.15,2013-06-29 21:25:00,
2013-06-29 17:35:00,69.0,66.3,29.53,NNE,16,0.0,0.0,91,0.00,,,0.38,Wunderground v.1.15,2013-06-29 21:35:00,
2013-06-29 17:45:00,69.6,66.9,29.52,NNE,16,0.0,0.0,91,0.00,,,0.38,Wunderground v.1.15,2013-06-29 21:45:00,
2013-06-29 17:50:00,70.1,67.3,29.52,NNE,16,0.0,0.0,91,0.00,,,0.38,Wunderground v.1.15,2013-06-29 21:50:00,
2013-06-29 18:00:00,70.3,67.2,29.52,NNE,15,0.0,0.0,90,0.00,,,0.38,Wunderground v.1.15,2013-06-29 22:00:00,
2013-06-29 18:05:00,70.3,67.5,29.52,NNE,25,0.0,0.0,91,0.00,,,0.38,Wunderground v.1.15,2013-06-29 22:05:00,
2013-06-29 18:10:00,70.5,68.1,29.52,NE,37,0.0,0.0,92,0.00,,,0.38,Wunderground v.1.15,2013-06-29 22:10:00,
2013-06-29 18:20:00,70.8,68.4,29.53,South,170,0.0,0.0,92,0.00,,,0.38,Wunderground v.1.15,2013-06-29 22:20:00,
2013-06-29 18:25:00,70.9,68.5,29.53,South,170,0.0,0.0,92,0.00,,,0.38,Wunderground v.1.15,2013-06-29 22:25:00,
2013-06-29 18:35:00,70.9,68.5,29.53,ENE,63,0.0,0.0,92,0.00,,,0.38,Wunderground v.1.15,2013-06-29 22:35:00,
2013-06-29 18:40:00,70.7,68.6,29.53,NE,39,0.0,0.0,93,0.00,,,0.38,Wunderground v.1.15,2013-06-29 22:40:00,
2013-06-29 18:50:00,70.4,68.3,29.54,East,84,0.0,0.0,93,0.00,,,0.38,Wunderground v.1.15,2013-06-29 22:50:00,
2013-06-29 18:55:00,70.5,68.4,29.54,East,88,0.0,0.0,93,0.00,,,0.38,Wunderground v.1.15,2013-06-29 22:55:00,
2013-06-29 19:05:00,70.7,68.6,29.53,ESE,102,0.0,0.0,93,0.00,,,0.38,Wunderground v.1.15,2013-06-29 23:05:00,
2013-06-29 19:10:00,70.8,69.0,29.53,East,101,0.0,0.0,94,0.00,,,0.38,Wunderground v.1.15,2013-06-29 23:10:00,
2013-06-29 19:15:00,70.6,68.8,29.54,ESE,102,0.0,0.0,94,0.00,,,0.38,Wunderground v.1.15,2013-06-29 23:15:00,
2013-06-29 19:25:00,69.9,68.1,29.54,ESE,104,1.0,2.0,94,0.00,,,0.38,Wunderground v.1.15,2013-06-29 23:25:00,
2013-06-29 19:35:00,69.7,67.9,29.55,NNE,31,0.0,1.0,94,0.00,,,0.38,Wunderground v.1.15,2013-06-29 23:35:00,
2013-06-29 19:40:00,69.4,67.3,29.54,NE,45,1.0,1.0,93,0.00,,,0.38,Wunderground v.1.15,2013-06-29 23:40:00,
2013-06-29 19:50:00,68.9,66.8,29.55,NE,45,0.0,0.0,93,0.00,,,0.38,Wunderground v.1.15,2013-06-29 23:50:00,
2013-06-29 19:55:00,68.4,66.6,29.55,NE,43,1.0,1.0,94,0.00,,,0.38,Wunderground v.1.15,2013-06-29 23:55:00,
2013-06-29 20:05:00,67.5,66.0,29.55,NNE,26,0.0,1.0,95,0.00,,,0.38,Wunderground v.1.15,2013-06-30 00:05:00,
2013-06-29 20:10:00,67.2,65.7,29.55,North,357,1.0,1.0,95,0.00,,,0.38,Wunderground v.1.15,2013-06-30 00:10:00,
2013-06-29 20:20:00,67.1,65.9,29.56,NE,53,0.0,1.0,96,0.00,,,0.38,Wunderground v.1.15,2013-06-30 00:20:00,
2013-06-29 20:25:00,67.1,65.9,29.57,North,1,0.0,1.0,96,0.00,,,0.38,Wunderground v.1.15,2013-06-30 00:25:00,
2013-06-29 20:35:00,66.9,65.7,29.57,North,1,0.0,0.0,96,0.00,,,0.39,Wunderground v.1.15,2013-06-30 00:35:00,
2013-06-29 20:40:00,66.9,65.7,29.57,North,1,0.0,0.0,96,0.00,,,0.39,Wunderground v.1.15,2013-06-30 00:40:00,
2013-06-29 20:45:00,66.8,65.6,29.57,North,1,0.0,0.0,96,0.00,,,0.39,Wunderground v.1.15,2013-06-30 00:45:00,
2013-06-29 20:55:00,66.5,65.3,29.57,North,1,0.0,0.0,96,0.00,,,0.39,Wunderground v.1.15,2013-06-30 00:55:00,
2013-06-29 21:00:00,66.4,65.2,29.58,North,1,0.0,1.0,96,0.00,,,0.39,Wunderground v.1.15,2013-06-30 01:00:00,
2013-06-29 21:10:00,66.2,65.3,29.58,NE,41,0.0,1.0,97,0.00,,,0.39,Wunderground v.1.15,2013-06-30 01:10:00,
2013-06-29 21:15:00,66.1,64.9,29.58,NE,41,0.0,1.0,96,0.00,,,0.39,Wunderground v.1.15,2013-06-30 01:15:00,
2013-06-29 21:25:00,65.7,64.5,29.59,North,360,0.0,1.0,96,0.00,,,0.39,Wunderground v.1.15,2013-06-30 01:25:00,
2013-06-29 21:30:00,65.5,64.3,29.59,North,360,0.0,0.0,96,0.00,,,0.39,Wunderground v.1.15,2013-06-30 01:30:00,
2013-06-29 21:40:00,65.0,63.8,29.60,North,359,0.0,0.0,96,0.00,,,0.39,Wunderground v.1.15,2013-06-30 01:40:00,
2013-06-29 21:45:00,64.8,63.9,29.60,North,360,0.0,0.0,97,0.00,,,0.39,Wunderground v.1.15,2013-06-30 01:45:00,
2013-06-29 21:50:00,64.7,63.8,29.60,North,360,0.0,0.0,97,0.00,,,0.39,Wunderground v.1.15,2013-06-30 01:50:00,
2013-06-29 22:00:00,64.6,63.7,29.60,North,360,0.0,0.0,97,0.00,,,0.39,Wunderground v.1.15,2013-06-30 02:00:00,
2013-06-29 22:05:00,64.6,63.7,29.61,North,360,0.0,0.0,97,0.00,,,0.39,Wunderground v.1.15,2013-06-30 02:05:00,
2013-06-29 22:15:00,64.6,63.7,29.61,North,359,0.0,0.0,97,0.00,,,0.39,Wunderground v.1.15,2013-06-30 02:15:00,
2013-06-29 22:25:00,64.3,63.4,29.61,North,360,0.0,0.0,97,0.00,,,0.39,Wunderground v.1.15,2013-06-30 02:25:00,
2013-06-29 22:30:00,64.1,63.2,29.60,North,360,0.0,0.0,97,0.00,,,0.39,Wunderground v.1.15,2013-06-30 02:30:00,
2013-06-29 22:35:00,63.9,63.0,29.61,North,360,0.0,0.0,97,0.00,,,0.39,Wunderground v.1.15,2013-06-30 02:35:00,
2013-06-29 22:45:00,63.8,62.9,29.61,North,360,0.0,1.0,97,0.00,,,0.39,Wunderground v.1.15,2013-06-30 02:45:00,
2013-06-29 22:50:00,63.9,63.0,29.61,North,360,0.0,0.0,97,0.00,,,0.39,Wunderground v.1.15,2013-06-30 02:50:00,
2013-06-29 23:00:00,64.0,63.1,29.62,North,360,0.0,0.0,97,0.00,,,0.39,Wunderground v.1.15,2013-06-30 03:00:00,